Simultaneous Nadir Overpasses (SNOs) Predictions

Prediction of SNOs between NOAA-19 and TERRA Satellite Orbit:

Table of predicted SNOs for the next 14.0 days since TLE Epoch: 7/24/2021
Index Date (NOAA-19) Time (NOAA-19) Lat,Lon (NOAA-19) SZA (NOAA-19 ) Date (TERRA) Time (TERRA) Lat,Lon (TERRA) SZA (TERRA ) Distance(km) Time Diff (sec)
1 07/25/2021 23:55:22 -80.34, 34.99 117.55 07/25/2021 23:56:26 -80.35, 34.86 117.53 2.58 64
2 07/26/2021 00:46:17 80.33,-157.55 62.47 07/26/2021 00:45:52 80.35,-157.46 62.49 2.79 25
3 07/28/2021 06:19:30 -80.34, -60.84 117.02 07/28/2021 06:19:35 -80.34, -61.01 117.04 3.22 5
4 07/30/2021 11:52:34 80.36, 35.63 63.50 07/30/2021 11:53:16 80.36, 35.76 63.54 2.34 42
5 07/30/2021 12:43:39 -80.35,-157.05 116.49 07/30/2021 12:42:44 -80.33,-156.91 116.52 3.51 55
6 08/01/2021 17:25:48 -80.37, 132.11 115.95 08/01/2021 17:26:59 -80.35, 132.20 115.93 3.06 71
7 08/01/2021 18:16:42 80.36, -60.33 64.08 08/01/2021 18:16:25 80.35, -60.18 64.08 2.99 17
8 08/03/2021 23:49:55 -80.35, 36.51 115.33 08/03/2021 23:50:07 -80.37, 36.57 115.31 1.74 12
9 08/04/2021 00:40:43 80.22,-153.98 64.79 08/04/2021 00:39:33 80.36,-155.82 64.70 37.99 70
10 08/06/2021 05:22:58 80.37, 133.12 65.28 08/06/2021 05:23:48 80.38, 133.23 65.32 2.38 50



Historial Predications of SNOs between NOAA-19 and TERRA
